Weather in Surulovka

Russia / Ulyanovsk Oblast     53°05′20″N   47°44′34″E
temp.,
°C
wind,
m/s
gust,
m/s
humid.,
%
clouds,
%
prec.,
mm/h
press.,
hPa
HPBL,
m
14 april, wed
wed1401:00+9se22690 0.0 103011
04:00+8e22722 0.0 103010
07:00+8e22800 0.0 102920
10:00+14se58755 0.0 1028505
13:00+17se68565 0.0 10261050
16:00+18se68545 0.0 10251233
19:00+15ese476814 0.0 1023184
22:00+11se35860 0.0 102397
15 april, thu
thu1501:00+10ese22870 0.0 102213
04:00+8e22860 0.0 102210
07:00+8ene11860 0.0 102110
10:00+14ese23586 0.0 1020386
13:00+18ese344171 0.0 1019821
16:00+20se34365 0.0 10181148
19:00+17ese224851 0.0 101715
22:00+13se2258100 0.0 101811
16 april, fri
fri1601:00+11ne1158100 0.0 101710
04:00+10ne2266100 0.0 101810
07:00+10ne2271100 0.0 101828
10:00+14ene4654100 0.0 1018381
13:00+18ene5542100 0.0 1018856
16:00+19ne553957 0.0 10191513
19:00+15nne48596 0.0 1019163
22:00+11nne411835 0.0 1020265
17 april, sat
sat1701:00+9ne510865 0.0 1021264
04:00+7ne510915 0.0 1022253
07:00+6ne511916 0.0 1023336
10:00+10ne68704 0.0 1023563
13:00+14ne78552 0.0 1023938
16:00+14ne78450 0.0 10231177
19:00+11ne610450 0.0 1023399
22:00+8ne512510 0.0 1024325
18 april, sun
sun1801:00+6ne512590 0.0 1025303
04:00+4ne39683 0.0 1025201
07:00+4ne310690 0.0 1026280
10:00+9ne68500 0.0 1025906
13:00+12ene68410 0.0 10251364
16:00+13ne67415 0.0 10241633
19:00+11ne59495 0.0 1025365
22:00+7ne410645 0.0 1026252